Погода Пограничное

Погода Пограничное : погода сейчас, прогноз погоды и архив. Всё, что Вы хотите узнать о погоде Пограничное!

Хотите узнать прогноз погоды Пограничное? Тогда Вам сюда: Погода Пограничное

Поиск расширенной информации на нашем сайте:

Другие новости

Новости СМИ2

Главная страница сайта

Новости сайта

02.10.2013

Напоминаем, что на нашем новом сайте вы можете получить высокодетализированные прогнозы погоды по пунктам России, СНГ и мира (включающие важные для авиации метеовеличины, такие как направление и скорость ветра, видимость, явления погоды, количество и форма облачности, нижняя и верхняя граница облачности), а также ознакомиться с разнообразными материалами по авиационной метеорологии и подборкой полезных ссылок на эту тему.

Сайт Метеоцентр.Азия посвящён разработке технологий оптимизации авиаметеорологического обслуживания, включая проектирование и перспективное создание нескольких автоматизированных авиаметеорологических систем:
- система выпуска высокодетальных прогностических карт явлений погоды для нижнего воздушного пространства по России и ближнему зарубежью;
- система верификации прогнозов TAF (выпускаемых синоптиками официальных АМСГ РФ и ближнего зарубежья) и AUTOTAF (выпускаемых сайтом Метеоцентр.Азия) - выявление ошибок, онлайн-сопоставление с фактической погодой METAR, автоматическое внесение коррективов в прогнозы при резком отклонении фактической погоды от прогноза, подсчёт оправдываемости прогнозов по элементам и в целом;
- система обработки, анализа и отображения авиаметеорологической информации для применения провайдерами метеорологической информации.


Погода Пограничное - сегодня

Время (UTC), дата Ветер
(°,м/с) 
Видим.   Явления Облачность Т
(°С)
Тd
(°С)
f(%) Тe
(°С)
Pmin
(гПа)
dP
(гПа)
Po
(мм)
O2
(г/м3)
Тmin Tmax R s Состояние
почвы
12 13.01.17 360 (С) 5-12{17}  4000 м  слаб. ливневой снег  10/10 300 м кучево-дожд. 
[Cb cap]
-3.3 -3.7 97 -7  1001  -2  750  306           
15 13.01.17 020 (С) 2-7{13}  10 км  {ливн. осадки}  10/10 600 м кучево-дожд. 
[Cb cap]
-3.5 -4.5 93 -5  1002.2  1.2  751  307           
18 13.01.17 050 (СВ) 3-5{09}  10 км  {ливн. осадки}  10/10 600 м кучево-дожд. 
[Cb cap]
-4.4 -5.9 89 -7  1004.6  2.4  753  309           
21 13.01.17 050 (СВ) 1-2{06}  20000 м    10/10 600 м 
[Sc]
-5.1 -6.6 89 -5  1005.1  0.5  753  310  -5.1    47  равномерный
сухой снег
100% 
00 14.01.17 100 (В) 1-2{04}  10 км    10/10 600 м 
[Sc]
-4.9 -5.6 95 -4  1006.2  1.1  754  310  -5.4         
03 14.01.17 140 (ЮВ) 2-3{04}  20000 м    4/3 300 м кучево-дожд., средняя 
[Cb cap|Ac trans]
-4.1 -8.1 74 -5  1007.2  0.9  755  310           
06 14.01.17 010 (С) 1-2{04}  20000 м    3/0 средняя, верхняя 
[Ac trans|Ci fib]
-4.8 -7.7 80 -4  1009.5  2.4  756  311           
09 14.01.17 270 (З) 2-2{03}  20000 м    ясно 
-11.4 -12.5 92 -13  1012.1  2.5  758  320    -3.6       
12 14.01.17 280 (З) 2-3{03}  20000 м    3/0 верхняя 
[Ci fib]
-12.5 -14 89 -15  1013.4  1.3  759  322           
15 14.01.17 270 (З) 2-2{05}  20000 м    9/9 600 м 
[Sc]
-10.1 -12.1 85 -12  1012.4  -0.9  758  319           
18 14.01.17 360 (С) 3-7{08}  20000 м    10/10 600 м 
[Sc]
-3.1 -4.1 93 -5  1013.1  0.7  759  310           
21 14.01.17 350 (С) 3-8{09}  20000 м    10/10 300 м 
[Sc]
-2.4 -3 96 -4  1014.7  1.5  760  309  -13.2      47  равномерный
сухой снег
100% 
00 15.01.17 030 (СВ) 1-5{08}  20000 м    10/10 300 м 
[Sc]
-1.3 -2 95 -1  1016.6  1.9  762  309           
03 15.01.17 020 (С) 2-7{07}  4000 м  слаб. снег  10/10 300 м 
[Ns]
-1.1 -2 94 -2  1017.2  0.6  762  309           
06 15.01.17 350 (С) 3-7{08}  20000 м  {снег}  10/10 300 м 
[Sc]
-2.1 -3.1 93 -4  1018.7  1.5  763  310           
09 15.01.17 350 (С) 3-8{09}  20000 м    10/10 300 м 
[Sc]
-2.7 -3.6 94 -5  1019.9  1.1  764  311    -1  0.3     
12 15.01.17 360 (С) 3-7{10}  20000 м    10/10 300 м 
[Sc]
-2.4 -3.4 93 -4  1020.5  0.6  765  311           
15 15.01.17 350 (С) 5-10{10}  20000 м    10/10 300 м 
[Sc]
-2.9 -4.4 89 -6  1020.5  765  312           
18 15.01.17 350 (С) 5-12{12}  20000 м    10/10 600 м 
[Sc]
-3.9 -6.2 84 -8  1021.2  0.7  765  313           
21 15.01.17 350 (С) 4-8{12}  20000 м    10/10 600 м 
[Sc]
-5 -7.4 83 -8  1021.1  0.1  765  315  -5      46  равномерный
сухой снег
100% 
00 16.01.17 350 (С) 4-9{11}  20000 м    10/10 600 м 
[Sc]
-5.1 -8 80 -8  1022.3  1.2  766  315  -5.1         
03 16.01.17 350 (С) 3-7{11}  20000 м    10/10 600 м 
[Sc]
-5.1 -8.3 78 -7  1021.9  -0.4  766  315           
06 16.01.17 020 (С) 2-8{09}  20000 м  {снег}  10/10 600 м 
[Sc]
-5.3 -8.5 78 -7  1022.4  0.4  766  316           
09 16.01.17 360 (С) 1-3{10}  20000 м    10/10 300 м 
[Sc]
-5.9 -9 79 -6  1023  0.6  766  317    -4.8  0.3     
12 16.01.17 350 (С) 2-4{07}  20000 м    10/10 300 м 
[Sc]
-6.5 -9 82 -8  1023.3  0.3  767  317           
Время (UTC), дата Ветер
(°,м/с) 
Видим.   Явления Облачность Т
(°С)
Тd
(°С)
f(%) Тe
(°С)
Pmin
(гПа)
dP
(гПа)
Po
(мм)
O2
(г/м3)
Тmin Tmax R s Состояние
почвы

Для получения пояснительной информации подведите курсор к названию столбца.

ПОГОДА Пограничное - архив

Всё, что Вы хотите узнать о погоде Пограничное - удобно и подробно!

Выберите нужную дату (начиная с 1 января 2015* года) и нажмите кнопку "Найти".
Будут отображены архивные сводки погоды по пункту Пограничное, начиная с указанной даты.


Отображать данные в формате CSV (для использования в таблицах Excel)


Внимание! Наш архив погоды предназначен исключительно для личного некоммерческого использования в познавательных целях. Если Вам необходимы официальные справки о состоянии погоды (для производственных, юридических, коммерческих и т.п. целей), обращайтесь в органы Росгидромета.

*Примечание: данная дата относится к архиву по метеостанциям СССР (Россия, СНГ, Балтия).
Архив по метеостанциям Зарубежной Европы и Азии (кроме Китая) хранится 10 дней, по другим регионам земного шара (Китай, Африка, Америка, Австралия, Океания) - 1 день.

Пограничное - район местоположения метеостанции


Название, широта, долгота, высота метеостанции:
Пограничное 50.4°ш. 143.8°д. 8 м над ур. моря [Российская Федерация]

Дополнительная информация

В oтличие oт бoльшинства пoгoдных сайтoв мы публикуем пoдрoбную метеoинфoрмацию в детальнoм прoфессиoнальнoм фoрмате.

Характеристики температуры и влажнoсти вoздуха измеряются на высoте 2 м в тени вдали oт зданий и деревьев.
Скoрoсть ветра измеряется на высoте 10 м (на урoвне рoста челoвека скoрoсть ветра ниже в 1.5-2 раза). Если метеoстанция нахoдится в гoрoде или в лесу, тo скoрoсть ветра занижена на 2-4 м/с пo сравнению с oткрытым местoм. Скoрoсть ветра над акватoриями крупных рек и oзёр, а также на вершинах хoлмoв на 2-5 м/с выше, чем в oбычных услoвиях.
Атмoсфернoе давление в разных тoчках местнoсти мoжет значительнo oтличаться oт давления на метеoстанции, в зависимoсти oт услoвий рельефа (при пoдъёме на 10 м давление пoнижается примернo на 1 мм рт.ст.).